Regional Weather Roundup
Issued by NWS Jackson, KY

Home | Current Version | Previous Version | Text Only | Print | Product List | Glossary On
Versions: 1 2 3 4 5 6 7 8 9 10 11 12 13 14 15 16 17 18 19 20 21 22 23 24 25 26 27 28 29 30 31 32 33 34 35 36 37 38 39 40 41 42 43 44 45 46 47 48 49 50
000
ASUS43 KJKL 252210
RWRJKL

EAST KENTUCKY HOURLY WEATHER ROUNDUP
NATIONAL WEATHER SERVICE JACKSON KY
600 PM EDT THU AUG 25 2016

NOTE: "FAIR" INDICATES FEW OR NO CLOUDS BELOW 12,000 FEET WITH
NO SIGNIFICANT WEATHER AND/OR OBSTRUCTIONS TO VISIBILITY.

* THESE REPORTS ARE NOT UNDER NWS QUALITY CONTROL AND MAY NOT
  REPORT WEATHER SUCH AS PRECIPITATION AND FOG.

KYZ079-080-083-085-087-088-110-112-115-119-120-252300
...EASTERN KENTUCKY...

CITY           SKY/WX    TMP DP  RH WIND       PRES   REMARKS
JACKSON        SUNNY     88  73  61 CALM      30.13F HX  95
LONDON         SUNNY     89  68  49 W9        30.13S HX  93
SOMERSET*      SUNNY     88  68  51 W6        30.13R HX  91
WILLIAMSBURG*  CLEAR     88  73  62 NW5       30.13S HX  96
MIDDLESBORO*   MOSUNNY   84  74  71 CALM      30.14S HX  91
HARLAN APT*    MOCLDY    84  70  61 SW3       30.15S
PIKE CO APT*     N/A     87  72  59 W3        30.13F HX  93
BIG SANDY APT* CLEAR     89  72  57 W7        30.11F HX  95
MOREHEAD APT*  PTCLDY    90  72  55 W7        30.11S HX  96
ASHLAND*       MOSUNNY   91  73  55 W9        30.04F HX 100
$$

KYZ035-036-041-042-044-050-067-078-099-252300
...CENTRAL KENTUCKY...

CITY           SKY/WX    TMP DP  RH WIND       PRES   REMARKS
MT STERLING*   MOSUNNY  N/A N/A N/A W6        30.12S
FLEMING/MASON* SUNNY     90  70  52 W10       30.09S HX  95
DANVILLE*      MOSUNNY   90  72  55 W7        30.12S HX  96
LEXINGTON      SUNNY     90  67  46 W9        30.10F HX  93
FRANKFORT      SUNNY     90  69  50 VRB6      30.08S HX  94
LOUISVILLE     MOSUNNY   91  66  43 SW12      30.06S HX  93
LEBANON*         N/A     90  73  58 SW6       30.10F HX  98
GLASGOW*       SUNNY     90  71  54 W3        30.09F HX  96
BOWLING GREEN  MOSUNNY   93  72  50 W8        30.07F HX 101
$$

KYZ091>093-OHZ055-061-077-WVZ005-015-034-035-042-252300
...SOUTHERN OHIO/WEST VIRGINIA...

CITY           SKY/WX    TMP DP  RH WIND       PRES   REMARKS
COVINGTON      MOSUNNY   89  73  59 SW8       30.06F HX  97
COLUMBUS       MOSUNNY   86  72  62 W18       30.02F HX  92
DAYTON         MOSUNNY   87  72  60 SW17      30.05F HX  93
WILMINGTON     MOSUNNY   88  73  61 SW13      30.06S HX  95
HUNTINGTON     SUNNY     90  71  53 W7        30.07S HX  96
CHARLESTON     MOSUNNY   89  71  55 SW8       30.08S HX  95
PINEVILLE*     MOSUNNY   88  67  50 MISG      30.20S HX  90
BECKLEY        MOSUNNY   83  69  62 W6        30.19F
BLUEFIELD      MOSUNNY   80  68  66 NW7       30.23S
LOGAN CO APT*    N/A     86  73  66 CALM      30.13S HX  93
$$

VAZ002-007-008-TNZ017-027-036-066-071-252300
...SOUTHWEST VIRGINIA/EAST TENNESSEE...

CITY           SKY/WX    TMP DP  RH WIND       PRES   REMARKS
WISE*          MOSUNNY   82  59  44 W3        30.23F
JONESVILLE*      N/A     90  72  55 CALM      30.16F HX  96
ABINGDON*      SUNNY     87  69  54 NW7       30.18F HX  91
BRISTOL        MOSUNNY   89  69  51 N6        30.14F HX  93
MORRISTOWN*    MOCLDY    88  72  58 N6        30.13S HX  94
KNOXVILLE      MOSUNNY   93  66  40 NW6       30.09F HX  96
CROSSVILLE     CLOUDY    89  68  49 N6        30.18S HX  93
NASHVILLE      CLOUDY    83  74  74 SE6       30.09F
$$

...KEY TO REMARKS...
VSB - VISIBILITY IN MILES
WCI - WIND CHILL INDEX
HX  - HEAT INDEX

$$



USA.gov is the U.S. government's official web portal to all federal, state and local government web resources and services.